Location: Rumah Dana
(3.1167°N, 113.0167°E)
Time: 03:27:52
(UTC+00:00)

Cosmos 1656 - Pass Details

Date: 20 January 2026
Orbit: 797 x 847 km, 71.1° (Epoch: 11 February)

Event Time Altitude Azimuth Distance (km) Brightness Sun altitude
Rises 10:51:20 0° 1° (N) 3,320 6.6 -4.0°
Reaches altitude 10° 10:53:58 10° 10° (N) 2,383 5.8 -4.6°
Maximum altitude 10:58:52 34° 74° (ENE) 1,288 4.2 -5.7°
Drops below altitude 10° 11:03:43 10° 138° (SE) 2,368 5.8 -6.9°
Sets 11:06:19 0° 147° (SSE) 3,296 6.6 -7.5°
